sat.trackr.live / text

‹ back to catalog

STARLINK-32443

NORAD 61672 · 2024-193M

PAYLOAD ACTIVE UNKNOWN

§ Identity

Operator
Country
US
Launch date
2024-10-26
Launch site
AFETR
Launch vehicle
Mass (kg)
RCS (m²)

Purposes: comms

External: N2YO · Heavens-Above · Gunter

§ Orbital elements

Epoch: 2026-09-21T06:04:38.442144Z

Period
94.02 min
Inclination
53.1573°
Eccentricity
0.0002153
Mean motion
15.31624014 rev/d
Perigee alt
469.5 km
Apogee alt
472.4 km
Semi-major
6,849.1 km
B*
7.3325e-4
RAAN
261.5438°
Arg perigee
107.0332°
Mean anomaly
253.0905°
Rev number
10,648

§ Raw data

STARLINK-324431 61672U 24193M   26264.25322271  .00022404  00000+0  73325-3 0  99992 61672  53.1573 261.5438 0002153 107.0332 253.0905 15.31624014106484

JSON: /api/v1/satellites/61672 · /tle

For live sub-satellite position, see the globe view (requires WebGL).

§ Visibility from observer

Set your observer location to see the next 7 days of passes ≥ 10°. The values pass through the URL so the page stays shareable.

No JS? Fill the form by hand. The geolocation button needs JavaScript.